This is the latest recevied weather packets stored in our database for station/object CE3SUR-16. If no packets are shown the sender has not sent any weather packets the latest 10 day(s).
| Time | Temp. | Humidity | Pressure | Rain* | Wind** | Luminosity | Snow |
|---|---|---|---|---|---|---|---|
| 1777950529 | 17.78° C | 62% | 954.9 hPa | - | - | - | - |
| 1777948729 | 18.33° C | 63% | 955 hPa | - | - | - | - |
| 1777946929 | 18.33° C | 62% | 954.8 hPa | - | - | - | - |
| 1777945128 | 18.33° C | 60% | 954.6 hPa | - | - | - | - |
| 1777943328 | 18.89° C | 59% | 954.6 hPa | - | - | - | - |
| 1777941528 | 20° C | 64% | 954.6 hPa | - | - | - | - |
| 1777939728 | 20.56° C | 63% | 954.5 hPa | - | - | - | - |
| 1777937927 | 20.56° C | 61% | 954.3 hPa | - | - | - | - |
| 1777936130 | 21.11° C | 61% | 954.4 hPa | - | - | - | - |
| 1777934330 | 21.11° C | 56% | 954.3 hPa | - | - | - | - |
| 1777932583 | 21.67° C | 51% | 953.9 hPa | - | - | - | - |
| 1777932530 | 21.67° C | 51% | 953.9 hPa | - | - | - | - |
| 1777930730 | 23.33° C | 48% | 953.6 hPa | - | - | - | - |
| 1777928962 | 23.89° C | 46% | 953.9 hPa | - | - | - | - |
| 1777928929 | 23.89° C | 46% | 953.9 hPa | - | - | - | - |
| 1777927129 | 24.44° C | 47% | 953.9 hPa | - | - | - | - |
| 1777925329 | 25° C | 46% | 953.8 hPa | - | - | - | - |
| 1777923529 | 25.56° C | 44% | 953.9 hPa | - | - | - | - |
| 1777921729 | 25° C | 44% | 954 hPa | - | - | - | - |
| 1777919928 | 24.44° C | 45% | 954.4 hPa | - | - | - | - |
| 1777918128 | 23.89° C | 45% | 954.6 hPa | - | - | - | - |
| 1777916327 | 24.44° C | 44% | 955.1 hPa | - | - | - | - |
| 1777914530 | 23.89° C | 43% | 955.4 hPa | - | - | - | - |
| 1777912729 | 24.44° C | 45% | 955.7 hPa | - | - | - | - |
| 1777910929 | 23.89° C | 44% | 955.8 hPa | - | - | - | - |
* Rain since midnight (hover to see other rain measurements)
** Current wind speed in m/s (hover to see current wind gust speed)